Torna al catalogo

DMSP 5D-3 F19 DEB

AttivoSSO
NORAD 39632·DEBRIS·🇺🇸 United States

Lanciato Apr 3, 2014 da Vandenberg Space Force Base

Loading…

Prossimi Passaggi (prossime 24 ore)

TLE

AggiornatoSource: Space-Track

Epoca: Sep 14, 2026, 10:51 UTC

1 39632U 14015C   26257.45209229  .00001062  00000-0  45933-3 0  9995
2 39632  98.6646 268.7318 0004365 204.2352 155.8624 14.26452278644483

Traccia DMSP 5D-3 F19 DEB in tempo reale con AllMySat

Download on the App Store